| time (UTC) | temp F | wind direction | speed MPH | gust MPH | rain 1hr in | rain 24hr in | rain mn in | humidity % | barometer mb |
| 20260502223723 | 74 | 275 | 3.0 | 9.0 | 0.00 | 0.00 | 0.00 | 33 | 1020.3 |
| 20260502222619 | 74 | 284 | 2.0 | 10.0 | 0.00 | 0.00 | 0.00 | 27 | 1020.5 |
| 20260502221618 | 74 | 281 | 3.0 | 9.0 | 0.00 | 0.00 | 0.00 | 29 | 1020.4 |
| 20260502220617 | 74 | 294 | 4.0 | 10.0 | 0.00 | 0.00 | 0.00 | 31 | 1020.3 |
| 20260502215616 | 74 | 235 | 3.0 | 10.0 | 0.00 | 0.00 | 0.00 | 29 | 1020.4 |
| 20260502214615 | 74 | 296 | 2.0 | 10.0 | 0.00 | 0.00 | 0.00 | 29 | 1020.4 |
| 20260502213614 | 74 | 299 | 3.0 | 7.0 | 0.00 | 0.00 | 0.00 | 32 | 1020.5 |
| 20260502212613 | 74 | 282 | 3.0 | 10.0 | 0.00 | 0.00 | 0.00 | 36 | 1020.6 |
| 20260502211612 | 74 | 276 | 2.0 | 9.0 | 0.00 | 0.00 | 0.00 | 34 | 1020.6 |
| 20260502210611 | 73 | 286 | 2.0 | 9.0 | 0.00 | 0.00 | 0.00 | 33 | 1020.9 |
| 20260502205610 | 73 | 306 | 3.0 | 4.0 | 0.00 | 0.00 | 0.00 | 37 | 1021.0 |
| 20260502204609 | 72 | 6 | 2.0 | 9.0 | 0.00 | 0.00 | 0.00 | 39 | 1020.9 |
| 20260502203608 | 72 | 296 | 3.0 | 9.0 | 0.00 | 0.00 | 0.00 | 43 | 1021.0 |
| 20260502202607 | 71 | 11 | 1.0 | 3.0 | 0.00 | 0.00 | 0.00 | 43 | 1021.2 |
| 20260502201605 | 71 | 38 | 2.0 | 3.0 | 0.00 | 0.00 | 0.00 | 43 | 1021.2 |
| 20260502200604 | 71 | 55 | 1.0 | 3.0 | 0.00 | 0.00 | 0.00 | 45 | 1021.2 |
| 20260502195603 | 70 | 29 | 1.0 | 3.0 | 0.00 | 0.00 | 0.00 | 47 | 1021.2 |
| 20260502194602 | 70 | 21 | 1.0 | 3.0 | 0.00 | 0.00 | 0.00 | 45 | 1021.5 |
| 20260502193601 | 70 | 33 | 1.0 | 3.0 | 0.00 | 0.00 | 0.00 | 47 | 1021.4 |
| 20260502192600 | 69 | 30 | 1.0 | 4.0 | 0.00 | 0.00 | 0.00 | 48 | 1021.3 |
| 20260502191528 | 69 | 83 | 2.0 | 4.0 | 0.00 | 0.00 | 0.00 | 46 | 1021.7 |
| 20260502190527 | 69 | 20 | 1.0 | 5.0 | 0.00 | 0.00 | 0.00 | 49 | 1021.8 |
| 20260502185525 | 68 | 22 | 1.0 | 5.0 | 0.00 | 0.00 | 0.00 | 48 | 1021.7 |
| 20260502184453 | 67 | 26 | 1.0 | 3.0 | 0.00 | 0.00 | 0.00 | 47 | 1022.0 |
| 20260502183421 | 67 | 20 | 1.0 | 4.0 | 0.00 | 0.00 | 0.00 | 49 | 1022.0 |
| 20260502182419 | 67 | 30 | 1.0 | 4.0 | 0.00 | 0.00 | 0.00 | 48 | 1021.9 |
| 20260502181418 | 67 | 26 | 1.0 | 4.0 | 0.00 | 0.00 | 0.00 | 49 | 1022.0 |
| 20260502180418 | 67 | 351 | 2.0 | 4.0 | 0.00 | 0.00 | 0.00 | 49 | 1022.0 |
| 20260502170340 | 63 | 17 | 2.0 | 3.0 | 0.00 | 0.00 | 0.00 | 49 | 1021.9 |
| 20260502164339 | 61 | 338 | 1.0 | 4.0 | 0.00 | 0.00 | 0.00 | 50 | 1021.8 |
| 20260502163337 | 61 | 297 | 1.0 | 4.0 | 0.00 | 0.00 | 0.00 | 53 | 1021.8 |
| 20260502162336 | 60 | 276 | 2.0 | 3.0 | 0.00 | 0.00 | 0.00 | 52 | 1021.7 |
| 20260502161336 | 59 | 278 | 1.0 | 3.0 | 0.00 | 0.00 | 0.00 | 50 | 1021.6 |
| 20260502160304 | 58 | 282 | 1.0 | 3.0 | 0.00 | 0.00 | 0.00 | 57 | 1021.8 |
| 20260502152301 | 55 | 12 | 1.0 | 2.0 | 0.00 | 0.00 | 0.00 | 56 | 1021.7 |
| 20260502151259 | 55 | 13 | 1.0 | 2.0 | 0.00 | 0.00 | 0.00 | 54 | 1021.7 |
| 20260502150258 | 55 | 7 | 1.0 | 3.0 | 0.00 | 0.00 | 0.00 | 57 | 1021.8 |
| 20260502130246 | 47 | 89 | 1.0 | 2.0 | 0.00 | 0.00 | 0.00 | 69 | 1021.8 |
| 20260502123243 | 47 | 132 | 2.0 | 4.0 | 0.00 | 0.00 | 0.00 | 67 | 1022.1 |
| 20260502122242 | 47 | 110 | 1.0 | 2.0 | 0.00 | 0.00 | 0.00 | 67 | 1022.1 |
| 20260502121241 | 47 | 105 | 0.0 | 4.0 | 0.00 | 0.00 | 0.00 | 68 | 1022.1 |
| 20260502120240 | 47 | 99 | 1.0 | 4.0 | 0.00 | 0.00 | 0.00 | 68 | 1022.0 |
| 20260502115240 | 47 | 105 | 0.0 | 0.0 | 0.00 | 0.00 | 0.00 | 68 | 1022.0 |
| 20260502114238 | 47 | 84 | 0.0 | 0.0 | 0.00 | 0.00 | 0.00 | 68 | 1022.0 |
| 20260502113207 | 47 | 108 | 0.0 | 0.0 | 0.00 | 0.00 | 0.00 | 69 | 1022.0 |
| 20260502112135 | 47 | 127 | 0.0 | 0.0 | 0.00 | 0.00 | 0.00 | 68 | 1022.1 |
| 20260502111134 | 48 | 140 | 0.0 | 2.0 | 0.00 | 0.00 | 0.00 | 66 | 1022.2 |
| 20260502110133 | 50 | 219 | 0.0 | 4.0 | 0.00 | 0.00 | 0.00 | 62 | 1022.4 |
| 20260502105132 | 52 | 219 | 1.0 | 4.0 | 0.00 | 0.00 | 0.00 | 59 | 1022.6 |
| 20260502104131 | 52 | 231 | 0.0 | 2.0 | 0.00 | 0.00 | 0.00 | 57 | 1022.8 |
| 20260502103130 | 52 | 231 | 2.0 | 2.0 | 0.00 | 0.00 | 0.00 | 58 | 1022.7 |
| 20260502102057 | 51 | 238 | 0.0 | 7.0 | 0.00 | 0.00 | 0.00 | 60 | 1022.5 |
| 20260502101057 | 49 | 232 | 1.0 | 7.0 | 0.00 | 0.00 | 0.00 | 63 | 1022.6 |
| 20260502091019 | 50 | 141 | 0.0 | 0.0 | 0.00 | 0.00 | 0.00 | 65 | 1022.3 |
| 20260502070834 | 52 | 221 | 0.0 | 0.0 | 0.00 | 0.00 | 0.00 | 59 | 1022.7 |
| 20260502065833 | 52 | 221 | 0.0 | 0.0 | 0.00 | 0.00 | 0.00 | 59 | 1022.6 |
| 20260502064832 | 52 | 230 | 0.0 | 2.0 | 0.00 | 0.00 | 0.00 | 59 | 1022.6 |
| 20260502063800 | 53 | 205 | 1.0 | 2.0 | 0.00 | 0.00 | 0.00 | 59 | 1022.7 |
| 20260502062728 | 52 | 227 | 0.0 | 1.0 | 0.00 | 0.00 | 0.00 | 58 | 1022.5 |
| 20260502061727 | 53 | 188 | 0.0 | 0.0 | 0.00 | 0.00 | 0.00 | 58 | 1022.4 |
| 20260502060714 | 53 | 180 | 0.0 | 1.0 | 0.00 | 0.00 | 0.00 | 57 | 1022.4 |
| 20260502055642 | 53 | 160 | 0.0 | 1.0 | 0.00 | 0.00 | 0.00 | 57 | 1022.2 |
| 20260502054641 | 53 | 159 | 0.0 | 1.0 | 0.00 | 0.00 | 0.00 | 57 | 1022.2 |
| 20260502053640 | 53 | 159 | 0.0 | 1.0 | 0.00 | 0.00 | 0.00 | 57 | 1022.1 |
| 20260502052639 | 53 | 159 | 1.0 | 1.0 | 0.00 | 0.00 | 0.00 | 57 | 1021.9 |
| 20260502051638 | 54 | 159 | 1.0 | 2.0 | 0.00 | 0.00 | 0.00 | 56 | 1021.9 |
| 20260502050637 | 54 | 159 | 1.0 | 2.0 | 0.00 | 0.00 | 0.00 | 55 | 1021.9 |
| 20260502045502 | 54 | 159 | 1.0 | 2.0 | 0.00 | 0.00 | 0.00 | 55 | 1021.7 |
| 20260502044430 | 55 | 159 | 0.0 | 1.0 | 0.00 | 0.00 | 0.00 | 55 | 1021.6 |
| 20260502043429 | 55 | 159 | 0.0 | 1.0 | 0.00 | 0.00 | 0.00 | 55 | 1021.6 |
| 20260502042428 | 55 | 158 | 0.0 | 3.0 | 0.00 | 0.00 | 0.00 | 56 | 1021.6 |
| 20260502041427 | 55 | 160 | 0.0 | 4.0 | 0.00 | 0.00 | 0.00 | 54 | 1021.6 |
| 20260502040427 | 56 | 168 | 0.0 | 5.0 | 0.00 | 0.00 | 0.00 | 54 | 1021.5 |
| 20260502035425 | 56 | 160 | 0.0 | 6.0 | 0.00 | 0.00 | 0.00 | 54 | 1021.5 |
| 20260502034424 | 56 | 158 | 2.0 | 6.0 | 0.00 | 0.00 | 0.00 | 53 | 1021.1 |
| 20260502033423 | 57 | 159 | 0.0 | 0.0 | 0.00 | 0.00 | 0.00 | 53 | 1021.1 |
| 20260502032421 | 57 | 163 | 0.0 | 0.0 | 0.00 | 0.00 | 0.00 | 52 | 1021.1 |
| 20260502031420 | 58 | 154 | 0.0 | 2.0 | 0.00 | 0.00 | 0.00 | 52 | 1020.8 |
| 20260502030418 | 59 | 151 | 0.0 | 2.0 | 0.00 | 0.00 | 0.00 | 52 | 1020.9 |
| 20260502025417 | 60 | 156 | 0.0 | 3.0 | 0.00 | 0.00 | 0.00 | 51 | 1021.0 |
| 20260502024417 | 62 | 155 | 1.0 | 3.0 | 0.00 | 0.00 | 0.00 | 49 | 1021.0 |
| 20260502023416 | 63 | 144 | 0.0 | 0.0 | 0.00 | 0.00 | 0.00 | 48 | 1020.8 |
| 20260502022414 | 64 | 136 | 0.0 | 0.0 | 0.00 | 0.00 | 0.00 | 45 | 1020.9 |
| 20260502021413 | 66 | 79 | 0.0 | 0.0 | 0.00 | 0.00 | 0.00 | 45 | 1021.3 |
| 20260502020412 | 67 | 80 | 0.0 | 0.0 | 0.00 | 0.00 | 0.00 | 41 | 1021.2 |
| 20260502015412 | 67 | 26 | 0.0 | 2.0 | 0.00 | 0.00 | 0.00 | 38 | 1021.0 |
| 20260502014411 | 68 | 25 | 0.0 | 3.0 | 0.00 | 0.00 | 0.00 | 38 | 1020.9 |
| 20260502013410 | 68 | 32 | 1.0 | 8.0 | 0.00 | 0.00 | 0.00 | 37 | 1020.8 |
| 20260502012409 | 69 | 18 | 1.0 | 9.0 | 0.00 | 0.00 | 0.00 | 35 | 1020.6 |
| 20260502011305 | 70 | 28 | 2.0 | 9.0 | 0.00 | 0.00 | 0.00 | 33 | 1020.5 |
| 20260502010304 | 70 | 15 | 1.0 | 9.0 | 0.00 | 0.00 | 0.00 | 34 | 1020.9 |
| 20260502005305 | 71 | 21 | 2.0 | 9.0 | 0.00 | 0.00 | 0.00 | 33 | 1021.0 |
| 20260502004301 | 72 | 311 | 0.0 | 8.0 | 0.00 | 0.00 | 0.00 | 30 | 1021.1 |
| 20260502003228 | 73 | 299 | 5.0 | 8.0 | 0.00 | 0.00 | 0.00 | 27 | 1021.1 |
| 20260502002227 | 73 | 290 | 0.0 | 7.0 | 0.00 | 0.00 | 0.00 | 30 | 1021.3 |
| 20260502001227 | 73 | 291 | 4.0 | 10.0 | 0.00 | 0.00 | 0.00 | 27 | 1021.3 |
| 20260502000226 | 72 | 315 | 0.0 | 10.0 | 0.00 | 0.00 | 0.00 | 28 | 1021.6 |
| 20260501235224 | 72 | 293 | 4.0 | 9.0 | 0.00 | 0.00 | 0.00 | 27 | 1021.6 |
| 20260501234152 | 72 | 291 | 2.0 | 9.0 | 0.00 | 0.00 | 0.00 | 28 | 1021.7 |
| 20260501233151 | 72 | 295 | 0.0 | 8.0 | 0.00 | 0.00 | 0.00 | 28 | 1021.8 |
| 20260501232149 | 72 | 264 | 0.0 | 11.0 | 0.00 | 0.00 | 0.00 | 28 | 1022.2 |
| 20260501231117 | 72 | 321 | 2.0 | 11.0 | 0.00 | 0.00 | 0.00 | 28 | 1022.1 |
| 20260501230116 | 72 | 292 | 3.0 | 7.0 | 0.00 | 0.00 | 0.00 | 29 | 1022.1 |
| 20260501225114 | 72 | 318 | 0.0 | 8.0 | 0.00 | 0.00 | 0.00 | 28 | 1022.2 |